Regional Weather Roundup
Issued by NWS Sioux Falls, SD

Home | Current Version | Previous Version | Graphics & Text | Print | Product List | Glossary Off
Versions: 1 2 3 4 5 6 7 8 9 10 11 12 13 14 15 16 17 18 19 20 21 22 23 24 25 26 27 28 29 30 31 32 33 34 35 36 37 38 39 40 41 42 43 44 45 46 47 48 49 50

000
ASUS43 KFSD 192202
RWRFSD

WEATHER ROUNDUP FOR SE SOUTH DAKOTA/SW MINNESOTA/NW IOWA
NATIONAL WEATHER SERVICE SIOUX FALLS SD
500 PM CDT FRI SEP 19 2014

NOTE: "FAIR" INDICATES FEW OR NO CLOUDS BELOW 12,000 FEET WITH NO
SIGNIFICANT WEATHER AND OR OBSTRUCTIONS TO VISIBILITY.


SDZ038>040-050-052>070-192300-
SOUTHEAST SOUTH DAKOTA

CITY           SKY/WX    TMP DP  RH WIND       PRES   REMARKS
CHAMBERLAIN    MOSUNNY   87  59  38 W8        29.71S
HURON          PTSUNNY   85  62  46 SW5       29.66S
MADISON        FAIR      79  68  69 SW12      29.70S
MITCHELL       MOSUNNY   88  61  40 SW9       29.68S
SIOUX FALLS    MOSUNNY   86  64  47 SW8       29.69S
WINNER         FAIR      87  53  31 W9        29.74F
YANKTON        SUNNY     90  64  43 SW10      29.69S
$$

MNZ071-072-080-081-089-090-097-098-192300-
SOUTHWEST MINNESOTA

CITY           SKY/WX    TMP DP  RH WIND       PRES   REMARKS
FAIRMONT       SUNNY     84  57  39 SW14G25   29.72R
JACKSON        MOSUNNY   86  61  42 SW18G29   29.72S
LUVERNE        MOSUNNY   88  61  40 SW20      29.71R
MARSHALL       PTSUNNY   81  66  61 W8        29.65S
MONTEVIDEO     CLOUDY    81  70  69 NW3       29.65S
PIPESTONE      PTSUNNY   82  63  51 W16       29.70S
REDWOOD FALLS  MOSUNNY   82  66  58 SW9       29.64F
TRACY          PTSUNNY   83  67  57 SW9       29.67R
WINDOM         MOSUNNY   84  66  54 SW15G21   29.69S
WORTHINGTON    SUNNY     84  64  51 SW17G29   29.71S
$$

IAZ001>003-012>014-020>022-031-032-NEZ013-014-SDZ071-192300-
NORTHWEST IOWA

CITY           SKY/WX    TMP DP  RH WIND       PRES   REMARKS
CHEROKEE       SUNNY     84  69  61 S21       29.74S
DENISON        SUNNY     81  70  69 S13G22    29.77F
ESTHERVILLE    MOSUNNY   83  65  54 SW22G37   29.71R
LE MARS        SUNNY     88  66  48 S17G30    29.73S
ORANGE CITY    SUNNY     88  63  42 SW22G30   29.73R
SHELDON        SUNNY     86  66  51 SW22      29.71R
SIOUX CITY     SUNNY     89  65  44 SW17G25   29.74R
SPENCER        SUNNY     85  66  53 SW22G33   29.72S
STORM LAKE     SUNNY     81  72  74 SW20G26   29.77R
$$

ABBREVIATIONS USED IN REMARKS
   TC - TEMPERATURE IN CELSIUS
  WCI - WIND CHILL INDEX
   HX - HEAT INDEX
  VSB - VISIBILITY




USA.gov is the U.S. government's official web portal to all federal, state and local government web resources and services.